[[{"header":{"parameterUnit":"m.s-1","parameterCategory":1,"la1":30.2991,"la2":30.254,"lo1":-89.0895,"lo2":-89.0444,"dy":0.0017,"dx":0.0017,"nx":28,"ny":28,"refTime":"2023-08-30T09:00:00:Z","depth":0,"parameterNumber":2,"parameterNumberName":"U-component_of_WINDS"},"data":[0,0,0,0,0,0,0,0,0,0,0,0,0,0,0,0,0,0,0,0,0,0,0,0,0,0,0,0,0,0,0,0,0,0,0,0,0,0,0,0,0,0,0,0,0,0,0,0,0,0,0,0,0,0,0,0,0,0,0.979,0.979,0,0.9842,0.9843,0.9844,0.9871,0.9871,0.9871,0.9871,0.9923,0.9925,0.9926,0,0,0,0,0,0,0,0,0,0,0,0,0,0.9711,0.9712,0.979,0.979,0.9791,0.9842,0.9843,0.9844,0.9871,0.9871,0.9871,0.9871,0.9923,0.9925,0.9926,0,0,0,0,0,0,0,0,0,0,0,0,0,0.9752,0.9712,0.979,0.9811,0.9813,0.9842,0.9843,0.9844,0.9871,0.9871,0.9871,0.9871,0.9922,0.9924,0.9926,0.9937,0,0,0.9933,0.9933,0,0,0,0,0,0,0,0,0.975,0.9755,0.9807,0.981,0.9812,0.985,0.9834,0.9875,0.9871,0.9849,0.9871,0.9871,0.9899,0.9903,0.9913,0.994,0.9942,0.9933,0.9934,0.9935,0.9935,0,0,0,0,0,0,0,0.9747,0.9753,0.9811,0.9808,0.9811,0.9817,0.9823,0.9842,0.9873,0.9851,0.9853,0.9859,0.99,0.9911,0.9914,0.9943,0.9933,0.9934,0.9936,0.9937,0.9981,0.9981,0,0,0,0,0,0,0.9741,0.975,0.9809,0.9812,0.9781,0.9818,0.9825,0.9838,0.9873,0.9878,0.9859,0.986,0.9907,0.9912,0.9916,0.9931,0.9935,0.9937,0.9938,0.9981,0.9981,0.9981,0,0,0,0,0,0,0.9739,0.9746,0.9807,0.9782,0.979,0.982,0.9834,0.9839,0.9849,0.9879,0.9884,0.9864,0.9907,0.9913,0.9932,0.9933,0.9938,0.9939,0.9981,0.9981,0.9981,0.9961,0,0,0,0,0,0,0.9737,0.9745,0.975,0.9782,0.9791,0.9822,0.9834,0.984,0.9853,0.9855,0.9885,0.989,0.9908,0.9929,0.9934,0.9936,0.9941,0.9982,0.9981,0.9981,0.9962,0.996,0.9959,0,0,0,0,0,0.9734,0.9742,0.975,0.9757,0.9799,0.9823,0.9828,0.9849,0.9853,0.9858,0.9877,0.9889,0.9932,0.993,0.9936,0.9939,0.9982,0.9981,0.9981,0.9962,0.9961,0.9959,0,0,0,0,0,0,0.971,0.9747,0.9756,0.9775,0.9796,0.9827,0.9834,0.9846,0.9866,0.9867,0.9891,0.9898,0.9914,0.9929,0.9926,0.9951,0.9958,0.9959,0.9942,0.994,0.9939,0.9935,0.9943,0,0,0,0,0,0.9706,0.9724,0.9755,0.9769,0.9778,0.9804,0.9816,0.983,0.9852,0.986,0.9881,0.9901,0.9919,0.993,0.9949,0.9964,0.9971,0.9969,0.9967,0.9966,0.9967,0.9976,0.9975,0.9981,0.9981,0.9981,0,0,0.97,0.9723,0.9732,0.9764,0.9782,0.9798,0.9811,0.9828,0.9841,0.9863,0.9882,0.9897,0.9921,0.9938,0.9947,0.9951,0.9967,0.9966,0.9965,0.9966,0.9976,0.9975,0.9974,0.9981,0.9981,0.9981,0,0,0.9697,0.9716,0.9729,0.9746,0.9773,0.979,0.9793,0.9823,0.9834,0.9854,0.987,0.9885,0.9916,0.9932,0.9944,0.9947,0.9958,0.9952,0.9945,0.9953,0.9953,0.9952,0.9953,0.9953,0.9952,0.9952,0.9952,0,0.9686,0.9712,0.9734,0.975,0.9764,0.9785,0.9798,0.9813,0.9844,0.9852,0.9856,0.9895,0.9913,0.9934,0.9934,0.9944,0.9948,0.9949,0.9951,0.9951,0.9951,0.9952,0.9952,0.9951,0.9951,0.9951,0.9952,0,0.9697,0.9714,0.9722,0.9751,0.9765,0.978,0.9804,0.9815,0.9828,0.9844,0.9863,0.9885,0.9908,0.9914,0.9927,0.9937,0.9939,0.9946,0.9954,0.9949,0.995,0.9951,0.995,0.995,0.9951,0.9951,0,0,0.968,0.9722,0.9724,0.9737,0.9768,0.9781,0.9796,0.9819,0.9828,0.9848,0.9861,0.9886,0.9894,0.9908,0.9922,0.9929,0.9929,0.9936,0.9937,0.9934,0.9941,0.9935,0.9935,0.9937,0.9937,0.9937,0.9939,0,0.9682,0.971,0.973,0.9751,0.9767,0.9787,0.9799,0.9819,0.9834,0.985,0.9867,0.9884,0.9893,0.9901,0.9909,0.9927,0.9931,0.9928,0.9949,0.9949,0.9942,0.9936,0.9929,0.993,0.994,0.994,0.994,0,0.9687,0.9707,0.9729,0.9757,0.9764,0.9776,0.9798,0.9812,0.9834,0.9845,0.986,0.9875,0.9891,0.9896,0.9918,0.9916,0.9925,0.9935,0.9936,0.9939,0.9944,0.9938,0.993,0.993,0.9941,0.9941,0.9941,0,0.9673,0.9705,0.9722,0.9733,0.9766,0.9773,0.9787,0.9809,0.9821,0.9841,0.9849,0.9869,0.988,0.9895,0.9915,0.9917,0.9935,0.9942,0.9944,0.9943,0.9947,0.9946,0.994,0.9953,0.9953,0.9953,0.9953,0,0.9672,0.9685,0.9716,0.9727,0.9741,0.9764,0.9777,0.9792,0.9812,0.9825,0.9843,0.9855,0.9881,0.9895,0.9911,0.9926,0.9931,0.994,0.9944,0.9938,0.9937,0.9945,0.9946,0.9953,0.9953,0.9953,0.9953,0,0.9659,0.968,0.97,0.973,0.9737,0.9747,0.9772,0.9782,0.9798,0.9815,0.982,0.9845,0.9864,0.9885,0.991,0.9921,0.9935,0.9941,0.9927,0.993,0.993,0.993,0.9929,0.993,0.9942,0.9942,0.9942,0,0.9657,0.9667,0.9698,0.9708,0.9722,0.9738,0.9751,0.9773,0.9785,0.981,0.9818,0.9837,0.9855,0.9883,0.9903,0.9923,0.9929,0.9927,0.9932,0.9926,0.9929,0.9928,0.9929,0.9926,0.9926,0.9926,0.9926,0,0.9651,0.9661,0.9679,0.97,0.9714,0.9732,0.975,0.9758,0.9783,0.9796,0.9815,0.9828,0.9854,0.9873,0.9895,0.9909,0.9921,0.9924,0.9925,0.992,0.9912,0.9916,0.9924,0.9924,0.9924,0.9924,0.9924,0.9924,0.9644,0.9654,0.9676,0.9695,0.9711,0.9727,0.9739,0.9756,0.9773,0.9796,0.9807,0.9826,0.9847,0.9878,0.9891,0.9906,0.991,0.9912,0.9913,0.9913,0.9911,0.9909,0.991,0.991,0.991,0.991,0.991,0,0.9639,0.9655,0.9672,0.9696,0.9711,0.9722,0.9742,0.9753,0.977,0.9788,0.9805,0.9826,0.9845,0.9867,0.9886,0.9894,0.99,0.9898,0.9898,0.9901,0.9906,0.9903,0.9893,0.9893,0.9893,0.9893,0.9893,0.9893,0.9638,0.9655,0.9668,0.9692,0.9708,0.9726,0.9737,0.9752,0.9767,0.979,0.9806,0.982,0.984,0.9861,0.9878,0.9884,0.989,0.9887,0.9894,0.9899,0.9901,0.9902,0.9899,0.9888,0.9888,0.9888,0.9888,0.9888]},{"header":{"parameterUnit":"m.s-1","parameterCategory":1,"la1":30.2991,"la2":30.254,"lo1":-89.0895,"lo2":-89.0444,"dy":0.0017,"dx":0.0017,"nx":28,"ny":28,"refTime":"2023-08-30T09:00:00:Z","depth":0,"parameterNumber":3,"parameterNumberName":"V-component_of_WINDS"},"data":[0,0,0,0,0,0,0,0,0,0,0,0,0,0,0,0,0,0,0,0,0,0,0,0,0,0,0,0,0,0,0,0,0,0,0,0,0,0,0,0,0,0,0,0,0,0,0,0,0,0,0,0,0,0,0,0,0,0,1.124,1.1239,0,1.1206,1.1205,1.1205,1.116,1.1159,1.1159,1.1158,1.1123,1.1122,1.1122,0,0,0,0,0,0,0,0,0,0,0,0,0,1.1267,1.1266,1.124,1.1239,1.1239,1.1206,1.1205,1.1205,1.116,1.1159,1.1158,1.1158,1.1123,1.1122,1.1122,0,0,0,0,0,0,0,0,0,0,0,0,0,1.1246,1.1266,1.124,1.1213,1.121,1.1206,1.1205,1.1205,1.116,1.1159,1.1158,1.1157,1.1123,1.1122,1.1122,1.1142,0,0,1.1121,1.1121,0,0,0,0,0,0,0,0,1.1247,1.1245,1.1217,1.1215,1.1211,1.1186,1.1202,1.1183,1.1161,1.1179,1.1158,1.1157,1.1145,1.1142,1.1138,1.114,1.1138,1.1121,1.1121,1.112,1.112,0,0,0,0,0,0,0,1.1249,1.1246,1.1226,1.1217,1.1213,1.1202,1.1198,1.1198,1.1168,1.1177,1.1174,1.1171,1.1143,1.1139,1.1137,1.1138,1.1121,1.1121,1.112,1.112,1.1154,1.1155,0,0,0,0,0,0,1.1254,1.1248,1.1227,1.1225,1.1227,1.1203,1.1198,1.1195,1.1168,1.1163,1.1172,1.1169,1.114,1.1138,1.1136,1.1157,1.112,1.112,1.112,1.1153,1.1155,1.1156,0,0,0,0,0,0,1.1255,1.1253,1.1229,1.1236,1.1232,1.1203,1.1201,1.1195,1.1191,1.1164,1.1158,1.1173,1.1139,1.1136,1.1141,1.1155,1.112,1.112,1.1152,1.1154,1.1155,1.1199,0,0,0,0,0,0,1.1256,1.1253,1.126,1.1236,1.1231,1.1234,1.1201,1.1195,1.1191,1.1186,1.1164,1.1159,1.1138,1.1141,1.114,1.1154,1.1119,1.115,1.1153,1.1155,1.1197,1.1202,1.1207,0,0,0,0,0,1.1257,1.1274,1.1261,1.1259,1.124,1.1235,1.1232,1.1208,1.1192,1.1199,1.1181,1.116,1.1154,1.1142,1.114,1.1154,1.1149,1.1152,1.1154,1.1194,1.1201,1.1207,0,0,0,0,0,0,1.1301,1.127,1.1255,1.1265,1.1253,1.1228,1.1235,1.1216,1.1208,1.1205,1.1175,1.117,1.1178,1.1167,1.1154,1.1172,1.1148,1.1151,1.1179,1.1186,1.1191,1.1193,1.1119,0,0,0,0,0,1.1312,1.131,1.1284,1.1295,1.129,1.1264,1.1261,1.1243,1.1229,1.1224,1.1207,1.1194,1.119,1.1187,1.1181,1.1195,1.1189,1.1204,1.1209,1.1214,1.1216,1.1222,1.1228,1.1164,1.1164,1.1164,0,0,1.1334,1.1317,1.1318,1.1303,1.1292,1.1291,1.126,1.126,1.126,1.1224,1.1227,1.1214,1.1198,1.1207,1.121,1.1198,1.1233,1.1217,1.1221,1.122,1.1226,1.1232,1.1237,1.1166,1.1166,1.1165,0,0,1.1374,1.1361,1.1369,1.1358,1.1341,1.1324,1.1326,1.1304,1.1294,1.1296,1.127,1.1269,1.1261,1.1251,1.1245,1.1282,1.1261,1.1281,1.1309,1.1316,1.1321,1.1325,1.1338,1.1343,1.1283,1.1283,1.1283,0,1.1403,1.1401,1.1375,1.1378,1.1372,1.134,1.1348,1.1339,1.1321,1.1318,1.1304,1.1295,1.1282,1.1288,1.1297,1.1293,1.1295,1.1283,1.1322,1.1326,1.133,1.1342,1.1347,1.1286,1.1285,1.1285,1.1285,0,1.1438,1.1438,1.1446,1.143,1.1425,1.143,1.1405,1.1404,1.1387,1.1371,1.1375,1.1358,1.1349,1.1349,1.1332,1.1353,1.1346,1.1328,1.1303,1.1339,1.135,1.1354,1.1289,1.1288,1.1288,1.1287,0,0,1.1504,1.1474,1.1478,1.147,1.1449,1.1448,1.1452,1.1443,1.1442,1.1431,1.1434,1.1429,1.1412,1.1405,1.1387,1.1393,1.1424,1.1374,1.1373,1.1384,1.1445,1.1459,1.1465,1.141,1.1411,1.1412,1.1447,0,1.154,1.1545,1.1522,1.1533,1.1532,1.1502,1.1505,1.1493,1.1479,1.1476,1.146,1.1457,1.1435,1.1431,1.1436,1.1419,1.1435,1.1416,1.1412,1.1412,1.1417,1.147,1.1484,1.1518,1.1451,1.1452,1.1452,0,1.1582,1.1573,1.1584,1.1564,1.1562,1.1566,1.1556,1.1553,1.1539,1.1528,1.1521,1.1501,1.1503,1.1481,1.1484,1.1471,1.1468,1.146,1.1461,1.1459,1.1434,1.147,1.1529,1.1534,1.1459,1.1458,1.1458,0,1.1628,1.162,1.1625,1.162,1.1596,1.1599,1.1589,1.1574,1.157,1.1561,1.1558,1.155,1.1546,1.154,1.1518,1.1503,1.1524,1.1499,1.1515,1.1515,1.152,1.152,1.1579,1.1519,1.1519,1.1519,1.1519,0,1.167,1.1678,1.1646,1.1649,1.1657,1.1631,1.164,1.1627,1.1614,1.1614,1.1588,1.1589,1.156,1.1558,1.1541,1.1546,1.1544,1.1536,1.1531,1.1538,1.1539,1.1535,1.1532,1.152,1.152,1.152,1.1519,0,1.1723,1.1702,1.1706,1.1683,1.1678,1.1684,1.1665,1.1667,1.1652,1.1653,1.1651,1.1627,1.1623,1.1601,1.1592,1.158,1.1591,1.1582,1.1596,1.1593,1.161,1.1608,1.1668,1.1674,1.1611,1.1612,1.1612,0,1.1751,1.1756,1.1734,1.1733,1.1724,1.1722,1.1718,1.1693,1.169,1.1675,1.1679,1.1673,1.1667,1.1662,1.1644,1.1637,1.1627,1.1648,1.1626,1.1632,1.1627,1.1627,1.1627,1.1653,1.1654,1.1654,1.1655,0,1.1803,1.1792,1.1787,1.1779,1.1775,1.1768,1.1758,1.1759,1.1731,1.1729,1.1725,1.172,1.1711,1.1706,1.1696,1.1686,1.1666,1.1662,1.1666,1.1672,1.168,1.1676,1.1609,1.1661,1.166,1.166,1.166,1.1659,1.1843,1.1847,1.1832,1.1828,1.1818,1.1811,1.1812,1.1797,1.1793,1.1783,1.1769,1.1767,1.1753,1.1738,1.173,1.1728,1.1716,1.1721,1.1722,1.1723,1.1727,1.1681,1.1726,1.1726,1.1725,1.1725,1.1725,0,1.1894,1.1883,1.1879,1.1867,1.1864,1.1846,1.1835,1.1834,1.1832,1.1821,1.1816,1.1811,1.1806,1.1788,1.1781,1.1783,1.1774,1.1782,1.1781,1.1779,1.1738,1.1735,1.1789,1.1789,1.1789,1.1789,1.1789,1.1789,1.1919,1.1924,1.1912,1.1912,1.1901,1.1899,1.1894,1.1887,1.1878,1.1874,1.187,1.1858,1.1844,1.1836,1.183,1.1825,1.1824,1.1835,1.1827,1.1788,1.1782,1.1776,1.1774,1.1835,1.1835,1.1868,1.1868,1.1868]}]]